Lid_Strength_Index
-0 -0 0 2 3 4 4 5 4 3 2 2 2 2 2 2 3 5 6 6 8 8 7 6 6 8 7 7 10 9 9 8 10 11 11 11 12 11 12 11 12 13 14 15 14 17 17 8 8 11 10 10 10 10
-0 -0 0 2 4 4 4 5 4 3 3 2 2 2 2 2 3 5 7 6 6 7 7 6 6 6 6 6 7 7 9 8 9 10 10 10 11 12 13 14 10 13 11 13 13 13 10 9 10 10 9 10 10 10
-0 -0 0 1 4 4 4 4 4 4 3 2 2 2 2 2 3 5 7 7 7 8 7 7 8 6 5 5 4 7 7 6 8 8 9 10 12 11 13 12 11 10 9 12 12 11 10 9 9 8 9 9 8 8
-0 -0 0 1 4 4 4 4 4 4 3 2 2 3 2 2 3 4 7 6 6 7 10 8 5 7 5 5 5 5 5 7 7 8 9 10 11 9 11 10 11 10 9 11 12 11 10 9 9 8 8 7 7 7
-0 -0 0 1 3 4 4 4 4 4 4 2 2 2 2 3 3 5 5 6 6 7 10 10 8 6 6 6 7 6 7 7 8 9 10 10 9 10 10 10 11 9 10 11 12 10 10 9 9 7 8 8 7 7
-0 0 -0 0 3 4 4 5 5 4 4 2 2 2 2 3 4 7 9 6 6 5 7 11 8 8 6 7 7 8 8 9 9 9 9 9 9 10 11 12 9 9 9 9 9 8 8 8 7 7 7 7 7 7
-0 -0 -0 0 3 4 4 5 5 4 4 3 2 3 3 4 6 8 8 6 6 6 7 10 10 8 7 7 8 8 9 9 9 10 10 10 11 10 11 12 8 8 7 7 7 7 8 8 8 7 7 7 7 7
-1 -0 -0 0 3 4 4 5 5 5 4 3 3 3 4 4 6 8 7 5 6 7 6 10 11 10 8 9 10 9 10 10 9 10 11 11 11 11 12 10 8 7 7 7 7 8 8 7 7 8 8 8 8 8
-1 -0 -0 0 4 4 4 5 5 5 4 3 3 3 5 8 10 8 4 5 5 6 9 10 11 12 9 10 10 10 10 11 10 11 11 11 12 12 10 9 7 7 8 8 7 6 7 8 8 8 8 8 9 9
-1 -0 -0 0 3 4 4 5 4 4 5 4 4 7 10 9 5 5 7 8 8 9 8 10 9 11 10 11 10 11 11 12 13 12 11 13 12 9 8 8 7 7 7 6 8 8 9 9 9 9 9 8 8 7
-1 -0 -0 0 3 4 4 4 5 5 3 6 8 9 7 4 8 9 12 12 12 12 12 10 10 11 9 10 11 11 12 12 13 12 12 13 12 10 8 7 7 7 6 7 7 7 8 8 9 9 9 9 8 7
-1 -0 0 1 3 4 4 5 5 5 6 6 6 5 6 8 9 11 13 13 13 13 12 11 10 9 9 9 10 11 12 12 14 11 13 13 11 9 8 7 6 6 6 6 6 7 7 8 9 9 9 8 8 8
-1 -0 0 1 2 4 4 5 4 4 5 5 7 8 9 11 14 14 16 15 14 13 12 10 10 9 9 9 11 10 12 13 10 13 13 11 10 8 8 6 6 6 6 6 7 7 8 9 8 9 9 7 8 7
-0 -0 0 1 2 4 4 4 4 4 6 9 11 13 12 13 12 13 13 13 11 11 10 9 10 10 10 10 11 11 11 11 14 15 13 10 9 9 7 6 6 7 7 7 7 7 9 9 9 7 7 7 7 7
-0 -0 1 1 3 3 4 4 4 5 7 10 10 14 13 11 11 10 10 10 9 7 8 9 9 9 10 10 10 11 13 14 13 12 10 10 10 8 7 7 7 7 7 8 8 9 9 9 9 8 7 7 7 7
-0 0 2 3 3 3 4 4 5 6 7 9 10 11 10 11 12 11 10 10 8 7 7 8 10 11 11 11 12 12 13 14 12 10 9 9 8 7 7 7 7 7 8 8 9 10 10 10 9 8 7 7 7 7
1 5 3 3 3 3 4 5 7 8 9 9 11 10 10 11 9 10 9 9 7 7 10 11 12 12 11 12 13 11 12 11 10 9 9 8 7 7 7 7 7 7 8 9 10 10 10 8 7 8 9 7 7 7
4 2 2 2 3 3 5 6 8 9 10 10 11 10 9 9 9 9 7 7 8 9 9 10 10 12 12 12 12 10 10 10 9 8 8 7 7 7 6 7 7 7 8 9 10 10 10 8 8 8 8 7 7 7
1 2 2 2 3 5 8 8 8 11 11 10 10 9 9 8 7 6 6 7 7 8 8 10 11 13 12 10 9 9 9 9 9 9 8 7 6 6 6 7 7 8 9 10 11 11 9 8 8 8 8 7 8 8
2 3 2 2 3 7 8 8 6 9 11 11 10 10 9 9 8 8 7 8 9 9 10 11 11 10 9 8 7 7 8 7 7 8 8 7 6 6 6 7 8 9 9 10 10 11 10 10 10 8 8 8 8 8
3 2 2 2 4 5 7 9 9 9 10 11 10 10 10 9 10 10 10 9 9 11 11 9 9 9 8 8 7 6 7 6 7 6 6 6 6 6 7 7 8 9 10 10 10 11 11 10 10 9 8 8 7 7
3 2 3 3 6 6 8 7 9 9 10 10 10 11 12 12 12 11 10 9 9 8 9 9 9 8 8 8 8 7 8 8 8 8 8 7 6 7 7 7 8 9 10 10 10 10 10 10 10 10 9 8 8 7
2 3 5 6 9 9 10 7 10 9 12 11 11 11 12 12 10 9 10 9 8 7 7 8 8 8 8 9 9 9 8 8 9 7 6 6 5 6 6 6 7 8 9 9 9 9 9 11 11 10 9 9 8 8
3 6 8 9 9 11 8 10 9 10 10 12 11 12 11 11 9 10 11 10 9 8 8 8 8 8 9 9 10 10 9 9 9 8 6 5 6 7 6 7 7 7 7 8 9 9 9 9 10 9 9 9 9 8
8 9 9 11 8 9 10 10 10 10 11 11 11 11 11 9 11 11 11 10 8 8 9 9 8 8 9 9 9 9 8 7 7 7 7 6 7 8 8 8 8 8 7 7 8 8 8 9 8 8 8 9 9 9
11 8 10 9 10 10 10 11 11 11 11 11 11 10 9 10 11 12 12 11 10 9 9 9 9 9 9 9 10 10 9 8 7 8 8 7 6 7 8 9 9 8 7 8 8 8 8 8 8 8 8 8 11 9
11 10 9 7 8 9 10 10 10 11 11 12 13 13 11 12 12 11 11 9 9 8 8 7 7 8 8 8 8 8 8 7 7 7 7 7 6 6 6 8 8 7 6 6 7 7 8 8 7 6 5 6 5 6
8 8 10 9 9 9 10 11 11 12 12 11 12 13 13 13 14 11 11 9 8 8 8 8 8 7 8 8 8 7 8 7 7 7 8 8 7 7 7 7 7 13 6 6 7 7 7 7 7 7 6 4 5 5
9 8 9 11 10 10 11 11 11 10 10 11 13 13 13 11 10 10 10 8 7 6 8 9 9 8 9 9 8 8 8 8 8 9 9 10 9 8 6 6 7 7 7 8 13 9 8 7 7 5 5 4 3 4
8 7 10 10 10 12 11 10 11 11 11 11 11 10 11 10 9 8 8 8 8 7 8 9 9 9 9 9 9 9 8 7 7 8 9 9 9 7 6 6 6 6 6 6 7 8 13 10 9 6 6 4 4 5
7 8 9 9 11 11 10 10 10 10 10 11 11 11 11 10 9 8 8 8 8 8 8 9 9 9 9 9 9 9 9 7 6 6 6 6 6 6 6 6 5 5 5 5 6 6 7 7 7 7 5 3 4 6
8 9 10 11 11 10 10 10 11 12 12 12 13 11 10 10 11 10 8 8 8 10 11 10 9 9 9 9 8 8 11 8 7 7 7 8 8 7 7 6 5 4 5 5 5 6 6 5 5 6 5 4 4 5
8 9 9 10 11 11 10 10 11 12 12 12 12 11 11 12 14 11 8 8 8 9 9 9 8 8 8 8 8 8 9 8 9 11 12 12 13 11 8 6 5 4 5 5 5 5 5 5 5 5 5 4 4 5